P/2016 A3 ( PanSTARRS )

Japanese version
Home page
Updated on May 22, 2017

---------------------------------------------------------------------

* Profile

Discovery Date January 4, 2016
Magnitude 20.5 mag
Discoverer Pan-STARRS 1 telescope (Haleakala)

* Pictures

* Orbital Elements

Epoch 2017 Mar. 28.0 TT = JDT 2457840.5
T 2017 Apr. 13.63055 TT                                 MPCW
q   4.7894332            (2000.0)            P               Q
n   0.04593002     Peri.  338.47623     -0.97086720     -0.23875975
a   7.7221515      Node   187.79398     +0.23582165     -0.93706675
e   0.3797800      Incl.    8.59401     +0.04248562     -0.25475417
P  21.46
From 73 observations 2016 Jan. 4-2017 Mar. 1, mean residual 0".5.

* Magnitudes Graph

        m1 = 2.0 + 5 log d + 20.0 log r

---------------------------------------------------------------------

The orbital elements are published on M.P.E.C. 2017-E59.
The magnitudes graphs are made with Comet for Windows.

---------------------------------------------------------------------

Copyright(C) Seiichi Yoshida (comet@aerith.net). All rights reserved.